Flag for Germany Weather past 2 weeks in Heilbronn, Baden-Württemberg, Germany

Now
61 °F

Overcast.


Feels Like: 61 °F
Forecast: 47 / 75 °F
Wind: 5 mph from Northwest

Location: Oehringen

Current Time: Jul 30, 2015 at 1:02:03 PM

Latest Report: Jul 30, 2015 at 12:00 PM


Visibility: 22 mi

Pressure: 30.02 "Hg

Humidity: 59%

Dew point: 47 °F

Location of HeilbronnLocation

Historic Weather in Heilbronn — Graph

°F

Heilbronn temperature yesterday

Maximum temperature yesterday: 64 °F (at 7:00 PM)
Minimum temperature yesterday: 55 °F (at 2:00 AM)
Average temperature yesterday: 58 °F

Past Weeks' High & Low Weather Summary

 TemperatureHumidityPressure
High95 °F (Jul 17, 7:00 PM)94% (Jul 29, 3:00 PM)30.13 "Hg (Jul 29, 3:00 PM)
Low50 °F (Jul 26, 7:00 AM)19% (Jul 17, 6:00 PM)29.65 "Hg (Jul 24, 9:00 PM)
Average72 °F59%29.91 "Hg
* Reported Jul 15 10:00 AM — Jul 30 10:00 AM, Heilbronn, Weather by CustomWeather, © 2015

Note: Actual official high and low records may vary slightly from our data, if they occured in-between our weather recording intervals... More about our weather records

Advertising

Heilbronn weather history for previous 24 hours

 ConditionsComfort  
Time TempWeatherWind HumidityBarometerVisibility
10:00 AM
Thu, Jul 30
58 °FOvercast.2 mph71%30.01 "Hg19 mi
9:00 AM56 °FOvercast.1 mph74%30.01 "Hg19 mi
8:00 AM54 °FOvercast.1 mph81%30.00 "Hg19 mi
7:00 AM52 °FOvercast.1 mph83%30.00 "Hg19 mi
5:00 AM51 °FOvercast.2 mph83%30.00 "Hg19 mi
4:00 AM51 °FClear.1 mph84%29.99 "Hg19 mi
3:00 AM51 °FClear.No wind85%29.99 "Hg19 mi
2:00 AM53 °FPassing clouds.1 mph81%29.98 "Hg19 mi
1:00 AM55 °FClear.2 mph74%29.97 "Hg22 mi
11:00 PM
Wed, Jul 29
57 °FClear.3 mph72%29.94 "Hg28 mi
10:00 PM59 °FClear.2 mph68%29.92 "Hg31 mi
9:00 PM62 °FSunny.5 mph63%29.89 "Hg28 mi
8:00 PM64 °FPassing clouds.6 mph60%29.88 "Hg28 mi
7:00 PM64 °FSunny.6 mph60%29.87 "HgN/A
6:00 PM64 °FScattered clouds.6 mph65%29.87 "Hg31 mi
5:00 PM60 °FOvercast.5 mph80%29.87 "Hg34 mi
4:00 PM58 °FDrizzle. Overcast.5 mph90%29.87 "Hg14 mi
3:00 PM57 °FLight rain. Low clouds.5 mph94%29.85 "Hg4 mi
2:00 PM56 °FLight freezing rain. Low clouds.3 mph93%29.85 "Hg2 mi
1:00 PM58 °FDrizzle. Low clouds.2 mph89%29.84 "Hg6 mi
Weather by CustomWeather, © 2015

See weather overviewHow to use our weather pages